CAPE
0 0 0 0 0 0 0 0 0 0 0 0 0 0 0 0 0 0 0 0 0 0 0 0 0 0 0 0 0 0 0 0 0 0 0 0 0 0 0 0 0 0 0 0
0 0 0 0 0 0 0 0 0 0 0 0 0 0 0 0 0 0 0 0 0 0 0 0 0 0 0 0 0 0 0 0 0 0 0 0 0 0 0 0 0 0 0 0
0 0 0 0 0 0 0 0 0 0 0 0 0 0 0 0 0 0 0 0 0 0 0 0 0 0 0 0 0 0 0 0 0 0 0 0 0 0 0 0 0 0 0 0
0 0 0 0 0 0 0 0 0 0 0 0 0 0 0 0 0 0 0 0 0 0 0 0 0 0 0 0 0 0 0 0 0 0 0 0 0 0 0 0 0 0 0 0
0 0 0 0 0 0 0 0 0 0 0 0 0 0 0 0 0 0 0 0 0 0 0 0 0 0 0 0 0 0 0 0 0 0 0 0 0 0 0 0 0 0 0 0
0 0 0 0 0 0 0 0 0 0 0 0 0 0 0 0 0 0 0 0 0 0 0 0 0 0 0 0 0 0 0 0 0 0 0 0 0 0 0 0 0 0 0 0
0 0 0 0 0 0 0 0 0 0 0 0 0 0 0 0 0 0 0 0 0 0 0 0 0 0 0 0 0 0 0 0 0 0 0 0 0 0 0 0 0 0 0 0
0 0 0 0 0 0 0 0 0 0 0 0 0 0 0 0 0 0 0 0 0 0 0 0 0 0 0 0 0 0 0 0 0 0 0 0 0 0 0 0 0 0 0 2
0 0 0 0 0 0 0 0 0 0 0 0 0 0 0 0 0 0 0 0 0 0 0 0 0 0 0 0 0 0 0 0 0 0 0 0 0 0 0 0 0 0 0 0
0 0 0 0 0 0 0 0 0 0 0 0 0 0 0 0 0 0 0 0 0 0 0 0 0 0 0 0 0 0 0 0 0 0 0 0 0 0 0 0 0 0 0 0
0 0 0 0 0 0 0 0 0 0 0 0 0 0 0 0 0 0 0 0 0 0 0 0 0 0 0 0 0 0 0 0 0 0 0 0 0 0 0 0 0 0 0 0
0 0 0 0 0 0 0 0 0 0 0 0 0 0 0 0 0 0 0 0 0 0 0 0 0 0 0 0 0 0 0 0 0 0 0 0 0 0 0 0 0 0 0 0
0 0 0 0 0 0 0 0 0 0 0 0 0 0 0 0 0 0 0 0 0 0 0 0 0 0 0 0 0 0 0 0 0 0 0 0 0 0 0 0 0 0 0 0
0 0 0 0 0 0 0 0 0 0 0 0 0 0 0 0 0 0 0 0 0 0 0 0 0 0 0 0 0 0 0 0 0 0 0 0 0 0 0 0 0 0 0 0
0 0 0 0 0 0 0 0 0 0 0 0 0 0 0 0 0 0 0 0 0 0 0 0 0 0 0 0 0 0 0 0 0 0 0 0 0 0 0 0 0 0 0 0
0 0 0 0 0 0 0 0 0 0 0 0 0 0 0 0 0 0 0 0 0 0 0 0 0 0 0 0 0 0 0 0 0 0 0 0 0 0 0 0 0 0 0 0
0 0 0 0 0 0 0 0 0 0 0 0 0 0 0 0 0 0 0 0 0 0 0 0 0 0 0 0 0 0 0 0 0 0 0 0 0 0 0 0 0 0 0 0
0 0 0 0 0 0 0 0 0 0 0 0 0 0 0 0 0 0 0 0 0 0 0 0 0 0 0 0 0 0 0 0 0 0 0 0 0 0 0 0 0 0 0 0
0 0 0 0 0 0 0 0 0 0 0 0 0 0 0 0 0 0 0 0 0 0 0 0 0 0 0 0 0 0 0 0 0 0 0 0 0 0 0 0 0 0 0 0
0 0 0 0 0 0 0 0 0 0 0 0 0 0 0 0 0 0 0 0 0 0 0 0 0 0 0 0 0 0 0 0 0 0 0 0 0 0 0 0 0 0 0 0
0 0 0 0 0 0 0 0 0 0 0 0 0 0 0 0 0 0 0 0 0 0 0 0 0 0 0 0 0 0 0 0 0 0 0 0 0 0 0 0 0 0 0 0
0 0 0 0 0 0 0 0 0 0 0 0 0 0 0 0 0 0 0 0 0 0 0 0 0 0 0 0 0 0 0 0 0 0 0 0 0 0 0 0 0 0 0 0
0 0 0 0 0 0 0 0 0 0 0 0 0 0 0 0 0 0 0 0 0 0 0 0 0 0 0 0 0 0 0 0 0 0 0 0 0 0 0 0 0 0 0 0
0 0 0 0 0 0 0 0 0 0 0 0 0 0 0 0 0 0 0 0 0 0 0 0 0 0 0 0 0 0 0 0 0 0 0 0 0 0 0 0 0 0 0 0
0 0 0 0 0 0 0 0 0 0 0 0 0 0 0 0 0 0 0 0 0 0 0 0 0 0 0 0 0 0 0 0 0 0 0 0 0 0 0 0 0 0 0 0
0 0 0 0 0 0 0 0 0 0 0 0 0 0 0 0 0 0 0 0 0 0 0 0 0 0 0 0 0 0 0 0 0 0 0 0 0 0 0 0 0 0 0 0
CIN
0 0 0 0 0 0 0 0 0 0 0 0 0 0 0 0 0 0 0 0 0 0 0 0 0 0 0 0 0 0 0 0 0 0 0 0 0 0 0 0 0 0 0 0
0 0 0 0 0 0 0 0 0 0 0 0 0 0 0 0 0 0 0 0 0 0 0 0 0 0 0 0 0 0 0 0 0 0 0 0 0 0 0 0 0 0 0 0
0 0 0 0 0 0 0 0 0 0 0 0 0 0 0 0 0 0 0 0 0 0 0 0 0 0 0 0 0 0 0 0 0 0 0 0 0 0 0 0 0 0 0 0
0 0 0 0 0 0 0 0 0 0 0 0 0 0 0 0 0 0 0 0 0 0 0 0 0 0 0 0 0 0 0 0 0 0 0 0 0 0 0 0 0 0 0 0
0 0 0 0 0 0 0 0 0 0 0 0 0 0 0 0 0 0 0 0 0 0 0 0 0 0 0 0 0 0 0 0 0 0 0 0 0 0 0 0 0 0 0 0
0 0 0 0 0 0 0 0 0 0 0 0 0 0 0 0 0 0 0 0 0 0 0 0 0 0 0 0 0 0 0 0 0 0 0 0 0 0 0 0 0 -9 -8 0
0 0 0 0 0 0 0 0 0 0 0 0 0 0 0 0 0 0 0 0 0 0 0 0 0 0 0 0 0 0 0 0 0 0 0 0 0 0 0 0 0 -5 0 -2
0 0 0 0 0 0 0 0 0 0 0 0 0 0 0 0 0 0 0 0 0 0 0 0 0 0 0 0 0 0 0 0 0 0 0 0 0 0 0 0 0 -1 -2 -14
0 0 0 0 0 0 0 0 0 0 0 0 0 0 0 0 0 0 0 0 0 0 0 0 0 0 0 0 0 0 0 0 0 0 0 0 0 0 0 0 0 0 0 0
0 0 0 0 0 0 0 0 0 0 0 0 0 0 0 0 0 0 0 0 0 0 0 0 0 0 0 0 0 0 0 0 0 0 0 0 0 0 0 0 0 0 0 0
0 0 0 0 0 0 0 0 0 0 0 0 0 0 0 0 0 0 0 0 0 0 0 0 0 0 0 0 0 0 0 0 0 0 0 0 0 0 0 0 0 0 0 0
0 0 0 0 0 0 0 0 0 0 0 0 0 0 0 0 0 0 0 0 0 0 0 0 0 0 0 0 0 0 0 0 0 0 0 0 0 0 0 0 0 0 0 0
0 0 0 0 0 0 0 0 0 0 0 0 0 0 0 0 0 0 0 0 0 0 0 0 0 0 0 0 0 0 0 0 0 0 0 0 0 0 0 0 0 0 0 0
0 0 0 0 0 0 0 0 0 0 0 0 0 0 0 0 0 0 0 0 0 0 0 0 0 0 0 0 0 0 0 0 0 0 0 0 0 0 0 0 0 0 0 0
0 0 0 0 0 0 0 0 0 0 0 0 0 0 0 0 0 0 0 0 0 0 0 0 0 0 0 0 0 0 0 0 0 0 0 0 0 0 0 0 0 0 0 0
0 0 0 0 0 0 0 0 0 0 0 0 0 0 0 0 0 0 0 0 0 0 0 0 0 0 0 0 0 0 0 0 0 0 0 0 0 0 0 0 0 0 0 0
0 0 0 0 0 0 0 0 0 0 0 0 0 0 0 0 0 0 0 0 0 0 0 0 0 0 0 0 0 0 0 0 0 0 0 0 0 0 0 0 0 0 0 0
0 0 0 0 0 0 0 0 0 0 0 0 0 0 0 0 0 0 0 0 0 0 0 0 0 0 0 0 0 0 0 0 0 0 0 0 0 0 0 0 0 0 0 0
0 0 0 0 0 0 0 0 0 0 0 0 0 0 0 0 0 0 0 0 0 0 0 0 0 0 0 0 0 0 0 0 0 0 0 0 0 0 0 0 0 0 0 0
0 0 0 0 0 0 0 0 0 0 0 0 0 0 0 0 0 0 0 0 0 0 0 0 0 0 0 0 0 0 0 0 0 0 0 0 0 0 0 0 0 0 0 0
0 0 0 0 0 0 0 0 0 0 0 0 0 0 0 0 0 0 0 0 0 0 0 0 0 0 0 0 0 0 0 0 0 0 0 0 0 0 0 0 0 0 0 0
0 0 0 -2 0 0 0 0 0 0 0 0 0 0 0 0 0 0 0 0 0 0 0 0 0 0 0 0 0 0 0 0 0 0 0 0 0 0 0 0 0 0 0 0
0 0 0 0 0 0 0 0 0 0 0 0 0 0 0 0 0 0 0 0 0 0 0 0 0 0 0 0 0 0 0 0 0 0 0 0 0 0 0 0 0 0 0 0
0 0 0 0 0 0 0 0 0 0 0 0 0 0 0 0 0 0 0 0 0 0 0 0 0 0 0 0 0 0 0 0 0 0 0 0 0 0 0 0 0 0 0 0
0 0 0 0 0 0 0 0 0 0 0 0 0 0 0 0 0 0 0 0 0 0 0 0 0 0 0 0 0 0 0 0 0 0 0 0 0 0 0 0 0 0 0 0
0 0 0 0 0 0 0 0 0 0 0 0 0 0 0 0 0 0 0 0 0 0 0 0 0 0 0 0 0 0 0 0 0 0 0 0 0 0 0 0 0 0 0 0
Wind_Speed
6 10 5 4 3 2 8 7 6 3 5 2 3 4 7 3 3 7 8 8 8 9 5 5 5 6 5 3 3 4 2 3 0 1 2 1 2 2 2 3 5 5 5 5
9 5 6 4 2 8 7 11 3 1 5 1 5 8 7 3 5 6 6 8 9 7 5 5 3 5 5 3 5 4 4 3 2 1 1 2 1 2 3 3 5 4 5 5
9 3 5 3 7 9 6 8 4 4 1 4 4 8 4 3 2 3 2 5 5 7 8 6 5 5 4 5 6 5 4 4 3 2 0 1 1 1 2 3 3 3 5 5
8 5 3 6 8 3 5 1 2 5 5 3 5 5 4 5 5 4 7 6 6 6 4 4 4 5 6 7 5 5 5 4 4 2 1 2 2 2 2 3 3 4 3 4
1 5 7 9 4 1 5 3 4 3 6 5 10 6 8 4 4 4 7 7 6 5 4 4 5 6 5 5 6 5 5 5 4 3 3 3 3 3 2 3 6 3 3 3
5 3 4 2 2 4 6 5 7 5 4 5 4 4 8 0 1 5 5 7 7 7 6 5 3 3 5 5 5 4 5 6 5 5 5 5 5 5 4 4 4 3 3 3
7 5 5 4 3 4 6 6 5 6 7 6 2 4 10 3 3 2 5 7 7 7 6 6 6 5 5 7 7 6 6 8 6 6 6 6 6 6 6 5 4 4 3 3
6 6 7 8 3 2 3 5 7 7 4 5 2 5 7 5 4 2 4 6 7 8 7 7 7 7 7 8 7 6 7 8 6 7 7 6 6 4 4 5 4 4 3 4
6 2 3 3 2 3 2 4 3 9 4 5 3 8 7 2 3 4 6 7 7 7 7 8 9 8 8 7 7 5 6 7 7 7 6 6 6 6 6 6 5 4 4 4
6 5 1 4 1 4 3 5 5 5 3 3 5 6 7 2 2 4 6 7 9 8 9 8 7 8 7 7 6 7 6 7 6 7 6 6 6 6 6 5 6 6 5 5
4 5 4 1 0 4 2 2 5 5 3 6 1 8 7 7 5 4 1 5 7 8 8 7 8 8 7 6 7 8 7 7 7 6 6 6 6 6 6 5 6 6 4 5
1 5 3 2 0 1 1 3 3 6 5 2 4 10 1 5 3 3 7 8 6 7 8 8 7 7 7 7 7 7 6 6 6 6 6 7 6 6 6 6 6 5 5 5
2 2 3 6 3 3 3 4 3 5 3 6 7 9 1 3 5 1 6 9 8 8 9 8 8 7 7 7 7 7 7 7 6 6 6 7 7 6 7 7 6 5 6 6
3 3 5 7 5 4 3 4 4 4 4 5 8 6 4 2 5 10 9 5 6 5 6 6 8 8 7 7 7 7 8 6 6 6 6 7 7 7 7 7 6 6 6 6
3 2 2 5 5 4 4 5 9 8 5 8 5 9 6 6 6 7 6 6 6 5 6 7 7 8 7 8 8 7 7 7 6 7 6 7 7 6 6 6 6 6 6 6
3 1 1 3 1 5 7 9 10 12 8 11 8 15 9 6 5 6 7 5 6 5 7 8 8 9 9 9 9 8 8 8 5 7 8 7 6 6 6 6 6 6 6 6
2 3 2 4 4 6 8 12 14 6 6 11 11 8 4 4 4 5 5 5 6 7 7 9 9 9 9 9 9 9 10 7 7 7 7 7 6 6 7 6 6 7 7 5
4 4 2 3 5 4 3 1 3 11 4 9 2 4 1 4 5 7 5 2 6 8 8 11 10 11 10 7 9 8 8 7 8 8 7 7 6 7 6 6 7 6 5 6
2 4 2 1 3 9 1 1 5 5 1 5 7 4 3 2 2 4 3 4 4 7 8 7 8 9 9 10 10 7 10 7 7 8 8 7 6 6 6 7 7 6 5 5
3 4 4 2 1 6 2 2 2 1 3 2 4 3 3 3 4 5 5 7 8 7 6 8 10 8 8 10 8 8 9 8 8 8 8 7 6 6 7 6 6 5 5 6
2 1 5 3 3 9 7 5 3 2 4 2 3 2 1 0 4 4 7 6 5 6 9 8 8 9 10 10 9 10 9 10 9 9 8 7 4 5 6 6 3 4 5 5
8 7 4 4 4 9 3 2 3 3 1 3 2 2 3 4 7 5 7 7 8 9 8 8 7 9 10 8 6 10 10 10 9 9 8 7 7 5 4 5 5 5 5 6
4 7 7 11 8 3 2 1 2 2 2 2 1 2 2 4 3 5 6 7 7 8 8 8 7 10 9 9 6 10 11 11 9 9 8 6 7 6 5 5 6 4 4 4
4 3 3 1 4 6 4 4 3 2 3 2 1 2 0 2 3 4 5 6 6 6 6 6 8 10 10 8 8 8 10 9 9 9 8 6 6 7 5 4 4 4 4 4
5 6 5 5 4 3 1 3 2 2 3 3 3 2 3 3 4 4 5 6 7 7 9 7 8 10 12 11 11 8 10 8 8 8 7 6 4 5 5 5 4 4 5 5
6 7 6 6 3 2 3 4 2 3 2 1 1 3 3 2 5 4 6 5 6 9 10 10 9 10 13 13 14 13 8 6 8 9 6 5 5 4 4 4 6 6 10 11
Wind_Direction
29 64 39 325 315 93 112 100 107 321 329 347 352 288 269 258 211 244 248 253 258 261 280 261 259 212 198 207 211 228 251 275 189 19 351 4 309 308 314 326 323 319 323 323
43 38 328 281 130 88 79 112 86 309 352 72 7 280 258 235 237 224 249 264 259 265 282 284 266 199 196 199 228 244 238 262 230 178 212 211 242 278 273 301 309 323 332 334
100 303 320 59 47 86 41 112 159 156 65 65 336 309 331 48 359 338 334 281 284 273 282 268 243 215 214 233 236 243 245 243 239 205 216 324 287 306 333 319 314 322 328 337
81 341 37 61 71 43 89 335 89 103 81 171 11 259 310 344 345 37 354 350 337 333 292 263 238 221 222 243 248 258 254 243 242 201 206 219 215 268 243 256 264 294 321 329
309 26 31 55 330 326 147 84 83 78 87 81 352 75 267 326 53 15 6 2 344 331 341 306 240 235 250 260 255 258 259 251 251 232 221 224 249 236 262 283 285 292 293 300
81 23 54 87 20 64 145 73 49 56 82 39 309 94 290 325 5 313 329 337 342 346 347 344 327 280 272 274 270 261 252 257 247 233 229 228 249 257 267 281 288 287 298 313
12 5 335 33 68 26 65 58 8 5 12 215 274 47 238 273 298 270 316 338 347 347 346 330 314 300 289 285 278 262 244 262 242 238 241 238 242 238 246 254 263 283 289 282
113 336 360 337 69 152 80 133 148 182 179 256 355 243 257 208 318 331 356 347 353 346 334 310 293 286 280 279 274 272 263 265 243 238 245 247 245 228 234 244 255 270 269 290
125 26 316 23 0 90 244 54 164 104 45 45 260 287 313 304 107 37 36 36 8 345 311 291 291 282 279 278 285 282 282 267 255 242 241 242 243 238 238 243 251 259 276 272
195 86 329 304 309 31 100 153 65 1 105 288 295 276 239 307 84 54 38 15 347 338 333 318 297 292 287 274 280 295 282 268 263 239 229 235 230 235 243 245 246 249 263 266
140 103 277 332 41 174 31 30 51 110 101 159 249 269 211 210 203 122 39 335 303 298 297 311 314 309 296 298 299 291 284 275 266 245 241 240 243 235 231 235 249 251 253 256
347 124 123 186 297 198 166 183 149 120 221 65 141 274 277 231 257 260 275 287 303 336 328 313 304 309 323 316 310 301 295 276 264 254 248 244 243 236 237 238 237 235 244 251
170 18 50 356 19 12 216 192 118 104 83 197 137 261 298 273 204 147 323 334 333 331 333 335 352 351 340 332 323 319 317 300 288 260 246 244 240 232 235 237 239 230 235 243
91 109 149 182 199 144 206 191 183 134 129 175 224 272 303 297 323 319 325 325 328 331 336 336 351 342 333 322 310 314 310 307 301 286 261 251 242 232 230 234 235 229 229 238
77 148 176 231 228 194 219 195 183 197 186 181 229 217 243 260 278 292 297 314 318 341 342 338 328 318 313 319 320 316 306 308 309 305 291 267 258 239 240 238 233 235 232 236
13 234 113 287 42 216 252 228 210 217 225 253 266 276 217 261 234 286 292 279 283 296 326 325 318 321 323 321 315 309 301 302 306 294 281 283 276 254 243 242 238 238 242 242
84 120 76 276 342 315 288 228 204 190 201 208 214 221 237 258 305 287 297 298 291 306 314 316 314 308 304 306 308 299 298 300 296 282 280 279 274 264 247 238 234 234 234 232
133 115 116 282 341 259 257 293 180 205 225 218 195 176 174 254 266 279 271 268 340 324 320 324 317 314 311 299 303 296 304 300 300 296 285 277 268 262 268 256 242 243 226 228
64 124 106 171 231 292 4 150 141 177 312 203 213 259 204 310 331 325 87 48 323 304 300 288 296 294 303 308 306 310 313 307 302 301 292 288 272 269 266 252 254 249 234 237
62 60 118 121 204 242 285 333 346 337 327 69 117 110 36 36 27 257 358 340 325 316 303 310 316 309 305 313 315 315 310 310 306 307 298 294 294 270 267 256 260 243 231 250
155 187 199 193 270 285 249 264 306 112 219 99 110 135 51 230 203 287 334 323 298 299 312 314 317 313 306 309 318 317 310 309 302 303 295 295 292 283 283 289 257 264 261 262
167 151 188 174 210 271 202 67 176 196 142 122 68 28 340 310 314 323 313 317 321 324 322 320 317 314 314 306 309 313 311 304 306 309 305 303 302 293 281 264 274 270 266 267
209 190 180 185 207 227 266 53 38 101 135 97 60 11 326 302 326 312 307 316 315 309 309 308 307 311 310 312 311 312 309 315 311 313 305 302 307 300 294 290 290 292 252 244
252 173 234 140 211 211 221 142 110 45 101 81 72 282 89 273 301 303 309 311 312 312 311 308 316 318 313 312 306 289 301 305 311 305 303 305 311 312 312 300 282 275 271 269
199 139 193 257 267 80 56 115 133 121 82 52 5 323 313 317 320 312 317 316 319 317 321 324 316 315 313 317 310 302 303 310 310 307 303 302 298 301 304 291 268 268 256 237
183 189 172 231 192 157 153 142 103 118 127 88 342 327 346 319 314 308 310 310 311 317 323 323 322 323 324 325 322 324 318 306 305 308 300 297 298 299 298 303 308 268 270 284